Location: Mountain_View
(35.6670°N, 81.4000°W)
Time: 09:56:20
(UTC-04:00)

Amateur Radio Satellites - All Passes

Search period start: 23 April 2014 09:26
Search period end: 24 April 2014 09:26
Location: Mountain_View, 35.6670°N, 81.4000°W

Satellite Date Start Highest point End Downlink Frequencies (MHz)
Time Altitude Azimuth
HO-68 23 Apr 09:32:57 09:38:30 24° 95° (E) 09:44:01 435.675 MHz FM
Saudisat 1A 23 Apr 10:04:06 10:08:12 37° 114° (ESE) 10:12:18 436.775 MHz
JAS-2 23 Apr 10:06:35 10:09:57 16° 294° (WNW) 10:13:29 435.800 - 435.900 CW/SSB, 435.910 FM
PCSat 23 Apr 10:08:05 10:13:31 78° 245° (WSW) 10:18:54 145.825 MHz
PANSAT 23 Apr 10:18:05 10:21:15 24° 189° (S) 10:24:25 not established
RS-15 23 Apr 10:26:09 10:32:36 17° 336° (NNW) 10:39:02 29.354 - 29.394 USB, Beacon 29.352 USB
Oscar 11 23 Apr 10:54:24 10:58:37 48° 99° (E) 11:02:50 145.825 FM, Beacon 2401.500 USB
FUNcube-1 23 Apr 10:58:00 11:00:35 15° 94° (E) 11:03:12 145.950 - 145.970 MHz USB
KITSAT 1 23 Apr 11:06:20 11:13:31 33° 50° (NE) 11:20:38 435.175 FM
Sapphire 23 Apr 11:07:46 11:12:01 24° 253° (WSW) 11:16:16 437.095 MHz 1200 baud AX-25 AFSK
HO-68 23 Apr 11:19:30 11:26:29 57° 290° (WNW) 11:33:28 435.675 MHz FM
Saudisat 1A 23 Apr 11:44:27 11:47:53 21° 310° (NW) 11:51:20 436.775 MHz
PANSAT 23 Apr 11:59:29 12:00:53 12° 201° (SSW) 12:02:17 not established
Oscar 10/S400 23 Apr 12:14:58 13:57:43 43° 255° (WSW) 18:53:28 145.825 - 145.975 CW/USB, Beacon 145.810 USB
Oscar 11 23 Apr 12:32:17 12:34:22 13° 294° (WNW) 12:36:28 145.825 FM, Beacon 2401.500 USB
FUNcube-1 23 Apr 12:33:06 12:37:06 38° 287° (WNW) 12:41:11 145.950 - 145.970 MHz USB
RS-15 23 Apr 12:46:51 12:51:49 14° 15° (NNE) 12:56:48 29.354 - 29.394 USB, Beacon 29.352 USB
KITSAT 1 23 Apr 13:01:23 13:09:10 53° 249° (WSW) 13:16:54 435.175 FM
AO-27 23 Apr 13:41:38 13:45:16 20° 66° (ENE) 13:48:53 436.795 MHz FM
Oscar 19 23 Apr 13:44:53 13:49:37 39° 71° (ENE) 13:54:24 437.125 CW, 437.150 USB
ITAMSAT 1 23 Apr 13:50:44 13:54:45 23° 67° (ENE) 13:58:46 435.822 SSB
Oscar 16 23 Apr 13:53:41 13:58:39 52° 73° (ENE) 14:03:39 437.025 USB, Beacon 2401.1428
ISS 23 Apr 14:09:03 14:12:22 87° 139° (SE) 14:15:43 145.800 FM
Uribyol 2 23 Apr 14:36:42 14:41:49 71° 75° (ENE) 14:46:58 436.500 FM
TMSAT-1 23 Apr 14:44:09 14:47:22 17° 64° (ENE) 14:50:36 436.925 FM
JAS-1B 23 Apr 14:47:17 14:50:49 14° 62° (ENE) 14:54:07 435.800 - 435.900 CW/SSB
AO-7 23 Apr 14:50:32 14:52:14 11° 48° (NE) 14:53:56 29.400 - 29.500 MHz
AO-Echo 23 Apr 14:51:19 14:56:31 75° 76° (ENE) 15:01:37 ?
RS-15 23 Apr 14:58:35 15:08:39 39° 47° (NE) 15:18:51 29.354 - 29.394 USB, Beacon 29.352 USB
SO-50 23 Apr 15:16:03 15:20:30 71° 301° (WNW) 15:25:00 436.795 FM
Uosat F 23 Apr 15:17:50 15:19:18 11° 62° (ENE) 15:20:46 435.120 FM
AO-27 23 Apr 15:19:28 15:24:24 45° 260° (W) 15:29:22 436.795 MHz FM
Oscar 19 23 Apr 15:25:13 15:29:03 21° 266° (W) 15:32:56 437.125 CW, 437.150 USB
ITAMSAT 1 23 Apr 15:29:14 15:33:59 37° 262° (W) 15:38:46 435.822 SSB
Oscar 16 23 Apr 15:35:14 15:38:16 16° 267° (W) 15:41:19 437.025 USB, Beacon 2401.1428
Gurwin Techsat 1B 23 Apr 15:36:07 15:41:24 76° 75° (ENE) 15:46:43 435.225 FM
ISS 23 Apr 15:47:44 15:49:29 14° 334° (NNW) 15:51:15 145.800 FM
Uribyol 2 23 Apr 16:20:18 16:21:44 11° 269° (W) 16:23:11 436.500 FM
TMSAT-1 23 Apr 16:21:37 16:26:48 56° 260° (W) 16:32:00 436.925 FM
OPAL 23 Apr 16:23:41 16:28:56 88° 286° (WNW) 16:34:08 ?
JAS-1B 23 Apr 16:32:43 16:40:50 90° 75° (ENE) 16:47:35 435.800 - 435.900 CW/SSB
AO-Echo 23 Apr 16:34:35 16:35:41 11° 269° (W) 16:36:47 ?
AO-7 23 Apr 16:35:13 16:43:16 59° 68° (ENE) 16:51:20 29.400 - 29.500 MHz
Uosat F 23 Apr 16:52:23 16:57:24 76° 257° (WSW) 17:02:26 435.120 FM
RS-15 23 Apr 17:10:44 17:21:22 59° 248° (WSW) 17:32:23 29.354 - 29.394 USB, Beacon 29.352 USB
UOSAT-12 23 Apr 17:13:55 17:18:26 84° 300° (WNW) 17:23:06 437.025 FM, 437.400 FM
Gurwin Techsat 1B 23 Apr 17:20:40 17:21:51 11° 270° (W) 17:23:03 435.225 FM
OPAL 23 Apr 18:06:32 18:06:59 10° 301° (WNW) 18:07:27 ?
Hamsat 23 Apr 18:20:34 18:24:15 30° 72° (ENE) 18:27:59 145.90 MHz
JAS-1B 23 Apr 18:28:24 18:31:44 13° 267° (W) 18:34:52 435.800 - 435.900 CW/SSB
AO-7 23 Apr 18:29:41 18:36:22 27° 264° (W) 18:43:07 29.400 - 29.500 MHz
JAS-2 23 Apr 18:31:45 18:35:14 17° 66° (ENE) 18:38:34 435.800 - 435.900 CW/SSB, 435.910 FM
Saudisat 1A 23 Apr 18:34:39 18:37:14 15° 47° (NE) 18:39:47 436.775 MHz
UOSAT-12 23 Apr 18:58:21 18:59:20 11° 318° (NW) 19:00:18 437.025 FM, 437.400 FM
STRAND 1 23 Apr 19:10:08 19:13:52 20° 95° (E) 19:17:34 ?
SO-67 23 Apr 19:52:31 19:55:58 65° 77° (ENE) 19:59:26 435.3500 MHz FM
Hamsat 23 Apr 19:57:21 20:00:16 18° 266° (W) 20:03:12 145.90 MHz
HO-68 23 Apr 20:01:22 20:04:37 14° 56° (NE) 20:07:52 435.675 MHz FM
Saudisat 1A 23 Apr 20:12:52 20:17:10 56° 244° (WSW) 20:21:26 436.775 MHz
JAS-2 23 Apr 20:14:21 20:20:00 52° 259° (W) 20:25:11 435.800 - 435.900 CW/SSB, 435.910 FM
ISS 23 Apr 20:40:27 20:43:26 29° 34° (NE) 20:46:24 145.800 FM
STRAND 1 23 Apr 20:48:25 20:53:09 40° 289° (WNW) 20:57:53 ?
MaSat-1 23 Apr 20:50:39 20:53:29 42° 112° (ESE) 20:56:01 437.345 MHz
HO-68 23 Apr 21:44:04 21:51:12 81° 73° (ENE) 21:58:22 435.675 MHz FM
Oscar 11 23 Apr 21:47:06 21:50:42 26° 70° (ENE) 21:54:18 145.825 FM, Beacon 2401.500 USB
ISS 23 Apr 22:17:17 22:20:03 24° 230° (SW) 22:22:49 145.800 FM
PCSat 23 Apr 23:05:14 23:09:09 21° 106° (ESE) 23:13:04 145.825 MHz
Oscar 11 23 Apr 23:23:27 23:26:49 22° 265° (W) 23:30:12 145.825 FM, Beacon 2401.500 USB
FUNcube-1 23 Apr 23:26:38 23:30:48 69° 259° (W) 23:34:58 145.950 - 145.970 MHz USB
HO-68 23 Apr 23:35:43 23:39:33 15° 268° (W) 23:43:25 435.675 MHz FM
SO-50 23 Apr 23:50:27 23:54:55 45° 56° (ENE) 23:59:27 436.795 FM
Sapphire 24 Apr 00:02:19 00:07:40 68° 113° (ESE) 00:13:03 437.095 MHz 1200 baud AX-25 AFSK
PCSat 24 Apr 00:47:01 00:52:10 46° 301° (WNW) 00:57:23 145.825 MHz
KITSAT 1 24 Apr 01:31:47 01:38:40 32° 106° (ESE) 01:45:34 435.175 FM
SO-50 24 Apr 01:32:04 01:35:08 18° 251° (WSW) 01:38:14 436.795 FM
UOSAT-12 24 Apr 01:46:29 01:50:52 37° 55° (NE) 01:55:13 437.025 FM, 437.400 FM
Sapphire 24 Apr 01:48:10 01:51:35 17° 311° (NW) 01:55:01 437.095 MHz 1200 baud AX-25 AFSK
OPAL 24 Apr 02:00:19 02:02:37 13° 60° (ENE) 02:04:56 ?
Oscar 19 24 Apr 02:00:26 02:03:52 18° 93° (E) 02:07:18 437.125 CW, 437.150 USB
Oscar 16 24 Apr 02:09:01 02:13:09 24° 95° (E) 02:17:15 437.025 USB, Beacon 2401.1428
Uribyol 2 24 Apr 02:52:49 02:57:25 32° 97° (E) 03:02:01 436.500 FM
AO-Echo 24 Apr 03:02:20 03:06:23 28° 96° (E) 03:10:23 ?
KITSAT 1 24 Apr 03:25:49 03:33:40 52° 303° (WNW) 03:41:34 435.175 FM
UOSAT-12 24 Apr 03:27:13 03:30:46 21° 250° (WSW) 03:34:17 437.025 FM, 437.400 FM
AO-27 24 Apr 03:35:11 03:40:24 83° 103° (ESE) 03:45:35 436.795 MHz FM
OPAL 24 Apr 03:35:51 03:40:51 69° 256° (WSW) 03:45:58 ?
Oscar 19 24 Apr 03:38:26 03:43:25 47° 288° (WNW) 03:48:22 437.125 CW, 437.150 USB
ITAMSAT 1 24 Apr 03:44:35 03:49:47 82° 284° (WNW) 03:54:57 435.822 SSB
Oscar 16 24 Apr 03:47:49 03:52:32 36° 290° (WNW) 03:57:13 437.025 USB, Beacon 2401.1428
Gurwin Techsat 1B 24 Apr 03:55:38 04:00:34 38° 98° (E) 04:05:28 435.225 FM
JAS-1B 24 Apr 04:21:25 04:25:59 24° 97° (E) 04:30:52 435.800 - 435.900 CW/SSB
Uribyol 2 24 Apr 04:32:27 04:36:44 27° 292° (WNW) 04:41:01 436.500 FM
TMSAT-1 24 Apr 04:40:21 04:45:39 76° 102° (ESE) 04:50:56 436.925 FM
AO-Echo 24 Apr 04:41:14 04:45:02 25° 291° (WNW) 04:48:49 ?
AO-7 24 Apr 04:41:20 04:47:25 22° 95° (E) 04:53:28 29.400 - 29.500 MHz
Uosat F 24 Apr 05:03:18 05:08:01 41° 99° (E) 05:12:43 435.120 FM
AO-27 24 Apr 05:17:58 05:19:10 11° 299° (WNW) 05:20:21 436.795 MHz FM
RS-15 24 Apr 05:19:56 05:29:11 30° 105° (ESE) 05:38:08 29.354 - 29.394 USB, Beacon 29.352 USB
KITSAT 1 24 Apr 05:27:59 05:31:11 13° 327° (NNW) 05:34:23 435.175 FM
Gurwin Techsat 1B 24 Apr 05:36:09 05:40:16 23° 293° (WNW) 05:44:22 435.225 FM
JAS-1B 24 Apr 06:11:32 06:16:45 38° 290° (WNW) 06:22:22 435.800 - 435.900 CW/SSB
TMSAT-1 24 Apr 06:22:48 06:24:53 12° 298° (WNW) 06:26:57 436.925 FM
STRAND 1 24 Apr 06:23:29 06:27:24 23° 67° (ENE) 06:31:18 ?
AO-7 24 Apr 06:32:28 06:40:44 70° 290° (WNW) 06:48:59 29.400 - 29.500 MHz
PANSAT 24 Apr 06:34:42 06:37:14 17° 164° (SSE) 06:39:47 not established
Uosat F 24 Apr 06:42:56 06:46:29 20° 294° (WNW) 06:50:01 435.120 FM
MaSat-1 24 Apr 06:53:27 06:56:42 80° 67° (ENE) 07:00:36 437.345 MHz
JAS-2 24 Apr 07:25:52 07:30:07 21° 96° (E) 07:34:40 435.800 - 435.900 CW/SSB, 435.910 FM
RS-15 24 Apr 07:29:22 07:40:40 68° 303° (WNW) 07:51:37 29.354 - 29.394 USB, Beacon 29.352 USB
Hamsat 24 Apr 07:44:31 07:48:54 84° 283° (WNW) 07:53:16 145.90 MHz
PCSat 24 Apr 07:57:15 07:58:41 11° 44° (NE) 08:00:08 145.825 MHz
STRAND 1 24 Apr 08:01:38 08:06:20 37° 262° (W) 08:11:03 ?
PANSAT 24 Apr 08:13:38 08:16:57 27° 176° (S) 08:20:17 not established
AO-7 24 Apr 08:28:23 08:32:02 14° 309° (NW) 08:35:41 29.400 - 29.500 MHz
SO-67 24 Apr 08:52:52 08:56:20 63° 284° (WNW) 08:59:47 435.3500 MHz FM
Sapphire 24 Apr 08:53:39 08:58:22 29° 55° (NE) 09:03:03 437.095 MHz 1200 baud AX-25 AFSK
JAS-2 24 Apr 09:09:54 09:15:17 48° 287° (WNW) 09:21:17 435.800 - 435.900 CW/SSB, 435.910 FM
HO-68 24 Apr 09:17:00 09:21:25 17° 92° (E) 09:25:48 435.675 MHz FM
